Weather History for Harrisburg, PA

Change the Weather History Date:

Monday, March 25, 2013

  Actual Average Record
Temperature  
Mean Temperature 36 °F -  
Max Temperature 39 °F 53 °F 81 °F (1939)
Min Temperature 32 °F 34 °F 16 °F (1940)
Degree Days  
Heating Degree Days 30    
Moisture  
Dew Point 32 °F    
Average Humidity 89    
Maximum Humidity 100    
Minimum Humidity 53    
Precipitation  
Precipitation 0.36 in - - ()
Sea Level Pressure  
Sea Level Pressure 29.58 in    
Wind  
Wind Speed 6 mph (NE)    
Max Wind Speed 12 mph    
Max Gust Speed 17 mph    
Visibility 4 miles    
Events Fog , Rain , Snow    
Averages and records for this station are not official NWS values.
T = Trace of Precipitation, MM = Missing Value Source: NWS Daily Summary

Daily Weather History Graph

Daily Weather History Graph

Search for Another Location

Airport:

Trip Planner

Search our weather history database for the weather conditions in past years. The results will help you decide how hot, cold, wet, or windy it might be!

Date:

Astronomy

Mar. 25, 2013 Rise Set
Actual Time 7:02 AM EDT 7:24 PM EDT
Civil Twilight 6:35 AM EDT 7:52 PM EDT
Nautical Twilight 6:03 AM EDT 8:24 PM EDT
Astronomical Twilight 5:30 AM EDT 8:56 PM EDT
Moon 5:54 PM EDT (3/25) 5:44 AM EDT (3/25)
Length of Visible Light 13h 17m
Length of Day
12h 22m
Waxing Gibbous, 96% of the Moon is Illuminated
Mar 25
Waxing Gibbous
Mar 27
Full
Apr 3
Last Quarter
Apr 10
New
Apr 18
First Quarter

Hourly Weather History & Observations

Time (EDT) Temp. Windchill Dew Point Humidity Pressure Visibility Wind Dir Wind Speed Gust Speed Precip Events Conditions
12:56 AM 39.9 °F 32.9 °F 24.1 °F 53% 29.66 in 10.0 mi SE 11.5 mph 17.3 mph N/A   Overcast
1:56 AM 37.9 °F 30.5 °F 26.1 °F 62% 29.63 in 10.0 mi SE 11.5 mph - N/A   Overcast
2:56 AM 37.0 °F 33.3 °F 26.1 °F 65% 29.60 in 10.0 mi East 4.6 mph - N/A   Overcast
3:56 AM 37.0 °F 34.5 °F 25.0 °F 62% 29.59 in 10.0 mi East 3.5 mph - N/A   Overcast
4:56 AM 37.0 °F 33.3 °F 26.1 °F 65% 29.62 in 9.0 mi WSW 4.6 mph - 0.00 in Snow Light Snow
5:11 AM 35.6 °F 31.7 °F 28.4 °F 75% 29.61 in 2.5 mi WSW 4.6 mph - 0.00 in Snow Light Snow
5:22 AM 33.8 °F 29.6 °F 30.2 °F 87% 29.60 in 1.5 mi WSW 4.6 mph - 0.00 in Snow Light Snow
5:30 AM 33.8 °F - 30.2 °F 87% 29.60 in 1.0 mi Calm Calm - 0.01 in Snow Light Snow
5:56 AM 33.1 °F - 30.9 °F 92% 29.60 in 1.0 mi Calm Calm - 0.02 in Snow Light Snow
6:12 AM 33.8 °F - 32.0 °F 93% 29.58 in 0.8 mi Calm Calm - 0.02 in Snow Light Snow
6:23 AM 33.8 °F - 32.0 °F 93% 29.58 in 0.5 mi Calm Calm - 0.04 in Fog , Snow Snow
6:45 AM 33.8 °F 29.6 °F 32.0 °F 93% 29.58 in 0.5 mi ENE 4.6 mph - 0.06 in Fog , Snow Snow
6:56 AM 33.1 °F - 32.0 °F 96% 29.59 in 0.8 mi Calm Calm - 0.08 in Snow Light Snow
7:56 AM 33.1 °F 30.0 °F 32.0 °F 96% 29.59 in 0.5 mi ENE 3.5 mph - 0.05 in Fog , Snow Snow
8:56 AM 32.0 °F 27.5 °F 32.0 °F 100% 29.59 in 0.5 mi East 4.6 mph - 0.06 in Fog , Snow Snow
9:56 AM 33.1 °F 26.9 °F 30.9 °F 92% 29.57 in 1.0 mi East 6.9 mph - 0.03 in Snow Light Snow
10:06 AM 33.8 °F 27.7 °F 30.2 °F 87% 29.55 in 0.8 mi ENE 6.9 mph - 0.01 in Snow Light Snow
10:14 AM 33.8 °F 27.7 °F 30.2 °F 87% 29.55 in 1.0 mi ENE 6.9 mph - 0.01 in Snow Light Snow
10:26 AM 33.8 °F 27.0 °F 30.2 °F 87% 29.55 in 1.5 mi East 8.1 mph - 0.01 in Snow Light Snow
10:35 AM 33.8 °F 28.6 °F 30.2 °F 87% 29.55 in 1.2 mi ENE 5.8 mph - 0.01 in Snow Light Snow
10:56 AM 34.0 °F 28.0 °F 32.0 °F 92% 29.56 in 1.5 mi ENE 6.9 mph - 0.01 in Snow Light Snow
11:18 AM 33.8 °F 27.0 °F 32.0 °F 93% 29.54 in 1.2 mi East 8.1 mph - 0.00 in Snow Light Snow
11:42 AM 33.8 °F 27.7 °F 32.0 °F 93% 29.54 in 1.5 mi East 6.9 mph - 0.01 in Snow Light Snow
11:56 AM 34.0 °F 28.8 °F 32.0 °F 92% 29.55 in 1.0 mi East 5.8 mph - 0.01 in Snow Light Snow
12:18 PM 33.8 °F 27.7 °F 32.0 °F 93% 29.54 in 1.0 mi East 6.9 mph - 0.01 in Snow Light Snow
12:36 PM 33.8 °F 29.6 °F 32.0 °F 93% 29.54 in 1.5 mi ENE 4.6 mph - 0.02 in Snow Light Snow
12:47 PM 33.8 °F 30.8 °F 32.0 °F 93% 29.54 in 1.2 mi ENE 3.5 mph - 0.02 in Snow Light Snow
12:56 PM 34.0 °F 29.8 °F 32.0 °F 92% 29.55 in 1.5 mi Variable 4.6 mph - 0.03 in Snow Light Snow
1:17 PM 33.8 °F 29.6 °F 33.8 °F 100% 29.54 in 1.0 mi NE 4.6 mph - 0.01 in Snow Light Snow
1:56 PM 34.0 °F 28.8 °F 32.0 °F 92% 29.55 in 1.0 mi NE 5.8 mph - 0.04 in Snow Light Snow
2:37 PM 35.6 °F 29.2 °F 32.0 °F 87% 29.54 in 1.8 mi NE 8.1 mph - 0.02 in Snow Light Snow
2:46 PM 35.6 °F 29.2 °F 32.0 °F 87% 29.54 in 2.5 mi NE 8.1 mph - 0.02 in Snow Light Snow
2:49 PM 35.6 °F 29.2 °F 32.0 °F 87% 29.54 in 3.0 mi ENE 8.1 mph - 0.02 in Snow Light Snow
2:52 PM 35.6 °F 28.6 °F 33.8 °F 93% 29.54 in 2.5 mi ENE 9.2 mph - 0.02 in Snow Light Snow
2:56 PM 35.1 °F 27.9 °F 33.1 °F 92% 29.55 in 2.5 mi ENE 9.2 mph - 0.02 in Snow Light Snow
3:08 PM 35.6 °F 28.6 °F 33.8 °F 93% 29.54 in 2.5 mi ENE 9.2 mph - 0.00 in Snow Light Snow
3:17 PM 35.6 °F 31.7 °F 33.8 °F 93% 29.54 in 2.5 mi ENE 4.6 mph - 0.00 in Snow Light Snow
3:35 PM 35.6 °F 31.7 °F 33.8 °F 93% 29.54 in 2.5 mi North 4.6 mph - 0.00 in Snow Light Snow
3:43 PM 35.6 °F 32.8 °F 33.8 °F 93% 29.54 in 6.0 mi North 3.5 mph - 0.01 in Snow Light Snow
3:56 PM 36.0 °F 32.1 °F 32.0 °F 86% 29.56 in 10.0 mi Variable 4.6 mph - 0.01 in   Overcast
4:01 PM 35.6 °F 30.7 °F 32.0 °F 87% 29.55 in 10.0 mi NNE 5.8 mph - N/A   Overcast
4:30 PM 35.6 °F - 33.8 °F 93% 29.55 in 9.0 mi Calm Calm - 0.00 in Snow Light Snow
4:56 PM 36.0 °F - 32.0 °F 86% 29.57 in 10.0 mi Calm Calm - 0.00 in Rain Light Rain
5:07 PM 35.6 °F - 33.8 °F 93% 29.56 in 10.0 mi Calm Calm - 0.00 in Rain Light Rain
5:53 PM 35.6 °F 31.7 °F 32.0 °F 87% 29.57 in 10.0 mi WNW 4.6 mph - 0.00 in   Overcast
5:56 PM 36.0 °F 33.3 °F 32.0 °F 86% 29.58 in 10.0 mi WNW 3.5 mph - 0.00 in   Overcast
6:14 PM 35.6 °F 31.7 °F 30.2 °F 81% 29.58 in 10.0 mi West 4.6 mph - 0.00 in Rain Light Rain
6:41 PM 35.6 °F 29.9 °F 33.8 °F 93% 29.59 in 10.0 mi NW 6.9 mph - 0.00 in Rain Light Rain
6:56 PM 36.0 °F 31.1 °F 32.0 °F 86% 29.62 in 10.0 mi WNW 5.8 mph - 0.00 in Rain Light Rain
7:56 PM 35.1 °F 31.0 °F 33.1 °F 92% 29.64 in 10.0 mi West 4.6 mph - 0.00 in   Overcast
8:56 PM 35.1 °F 29.3 °F 33.1 °F 92% 29.66 in 9.0 mi West 6.9 mph - 0.00 in   Overcast
9:56 PM 34.0 °F 28.8 °F 33.1 °F 96% 29.67 in 5.0 mi West 5.8 mph - N/A   Overcast
10:56 PM 34.0 °F 28.8 °F 33.1 °F 96% 29.68 in 6.0 mi West 5.8 mph - N/A   Overcast
11:09 PM 33.8 °F 28.6 °F 33.8 °F 100% 29.67 in 6.0 mi West 5.8 mph - N/A   Overcast
11:29 PM 33.8 °F 27.7 °F 33.8 °F 100% 29.68 in 6.0 mi West 6.9 mph - N/A   Overcast
11:48 PM 33.8 °F 27.7 °F 32.0 °F 93% 29.68 in 6.0 mi West 6.9 mph - N/A   Overcast
11:56 PM 34.0 °F 28.8 °F 33.1 °F 96% 29.70 in 6.0 mi West 5.8 mph - N/A   Overcast